Location: Hopville
(44.8032°N, 123.1329°W)
Time: 04:51:59
(UTC+00:00)

Lacrosse 4 Rocket - Pass Details

Date: 24 January 2021
Orbit: 536 x 621 km, 68.0° (Epoch: 26 February)

Event Time Altitude Azimuth Distance (km) Brightness Sun altitude
Exits shadow 13:24:57 12° 185° (S) 1,765 3.9 -23.8°
Maximum altitude 13:28:41 45° 114° (ESE) 793 2.5 -23.1°
Drops below altitude 10° 13:32:49 10° 41° (NE) 1,931 4.5 -22.4°
Sets 13:35:10 0° 36° (NE) 2,852 5.4 -22.0°
